Location: Corona
(40.7470°N, 73.8601°W)
Time: 14:41:18
(UTC+00:00)

Cosmos 1939 Rocket - Pass Details

Date: 22 September 2019
Orbit: 534 x 583 km, 97.4° (Epoch: 16 October)

Event Time Altitude Azimuth Distance (km) Brightness Sun altitude
Rises 23:21:10 0° 148° (SSE) 2,673 6.0 -6.2°
Reaches altitude 10° 23:23:23 10° 139° (SE) 1,784 5.0 -6.6°
Maximum altitude 23:26:55 36° 72° (ENE) 859 3.4 -7.3°
Drops below altitude 10° 23:30:29 10° 5° (N) 1,798 5.5 -7.9°
Sets 23:32:43 0° 357° (N) 2,696 6.5 -8.3°
